Regional Weather Roundup
Issued by NWS

Home | Current Version | Previous Version | Graphics & Text | Print | Product List | Glossary On
Versions: 1 2 3 4 5 6 7 8 9 10 11 12 13 14 15 16 17 18 19 20 21 22 23 24 25 26 27
000
ASUS45 KCYS 281310
RWRWY

WYOMING REGIONAL WEATHER ROUNDUP
NATIONAL WEATHER SERVICE CHEYENNE WY
700 AM MDT THU JUL 28 2016

NOTE:  "FAIR" INDICATES FEW OR NO CLOUDS BELOW 12,000 FEET
WITH NO SIGNIFICANT WEATHER AND/OR OBSTRUCTIONS TO VISIBILITY.

WYZ001-281400-
YELLOWSTONE NATIONAL PARK

CITY           SKY/WX    TMP DP  RH WIND       PRES   REMARKS
LK YELLOWSTONE   N/A     42  42 100 CALM      30.41S
W YELLOWSTONE  NOT AVBL

$$
WYZ002>013-054>058-071-098>099-281400-
NORTHERN WYOMING

CITY           SKY/WX    TMP DP  RH WIND       PRES   REMARKS
JACKSON        CLEAR     48  37  66 CALM      30.30R
CODY           FAIR      59  52  77 CALM      30.28F
GREYBULL       FAIR      63  54  72 W9        30.17F
WORLAND        FAIR      60  57  89 SW7       30.22R
SHERIDAN       FAIR      60  55  83 NW9       30.20S
BUFFALO        FAIR      60  55  83 NW8       30.24R
GILLETTE       RAIN      59  59 100 S5        30.21F
HULETT         CLOUDY    61  52  72 SW9       30.23R
NEWCASTLE      FAIR      57  55  94 N5        30.17R

$$
WYZ014>020-022>026-101>103-281400-
CENTRAL WYOMING

CITY           SKY/WX    TMP DP  RH WIND       PRES   REMARKS
BIG PINEY      FAIR      48  29  47 E5        30.32R
PINEDALE       FAIR      46  34  61 NW7       30.32R
DUBOIS           N/A     48  36  61 NW7       30.36R HAZE
LANDER         FAIR      61  49  64 N3        30.28S
RIVERTON       MOCLDY    62  50  64 SE3       30.29R
CASPER         CLOUDY    63  56  78 NE12      30.25S
DOUGLAS          N/A    N/A N/A N/A MISG      30.22R

$$
WYZ021-027>030-104>119-281400-
SOUTHERN WYOMING

CITY           SKY/WX    TMP DP  RH WIND       PRES   REMARKS
EVANSTON       FAIR      62  25  24 CALM      30.32R
KEMMERER         N/A     54  30  40 NW9       30.33R
FORT BRIDGER   FAIR      60  26  27 W7        30.33R
ROCK SPRINGS   FAIR      59  31  34 NE5       30.32R
DIXON          FAIR      48  33  56 CALM      30.32R
RAWLINS        FAIR      56  46  69 NW5       30.31R
SARATOGA       FAIR      50  36  57 CALM      30.32R
LARAMIE        FAIR      53  49  86 NE6       30.28R
CHEYENNE       FOG       59  58  96 NE9       30.25R VSB 3/4
TORRINGTON     CLOUDY    63  55  75 SE12G23   30.16S
PINE BLUFFS    CLOUDY    61  59  94 NE14      30.24R

$$




USA.gov is the U.S. government's official web portal to all federal, state and local government web resources and services.